OBJECT Q, 61908

Orbit data source: Space-Track

You're viewing an Uncataloged Satellite

Recently launched and/or uncataloged satellites may have evolving metadata. Metadata may include but not limited to: Owner, Maufacturer, Bus, Motor, and Mission.

OBJECT Q, 61908 is a Chinese satellite in SSO that was launched on Mon, 11 Nov 2024 UTC via a LIJIAN-1 launch vehicle from the Jiuquan Satellite Launch Center, China (JSC). Unknown objects in Earth's orbit typically refer to objects detected orbiting the Earth but have not yet been identified or cataloged. These objects could be anything from previously untracked satellites, spent rocket stages, debris from satellite collisions, or even natural meteoroids temporarily captured by Earth's gravity.

Loading next visibility...
OBJECT Q details
Identifier
61908, 2024-205Q
Orbit
SSO
Last TLE update12 hours ago
Origin
Flag of CNSQU/STARV (CN / PRC)
ManufacturerSTARV/SQU
MissionOperational spacecraft
Bus & MotorUnknown
Mass~100 kg wet, ~100 kg dry
Launch date (UTC)
2024-11-11 (1 month ago)
Launch vehicle
LIJIAN-1
Launch site
Jiuquan Satellite Launch Center, China (JSC)
Object typeUnknown
Shape & HBRUnknown
Radar Cross SectionMedium (>0.1 m² and <1 m²)

Expand to show TLE details & history

TLE from 12 hours ago
0 OBJECT Q
1 61908U 24205Q   24348.44065307  .00009556  00000-0  50451-3 0  9990
2 61908  97.4759  60.0932 0015931 172.6434 187.5036 15.15624262  4854
Epoch: 2024-12-13T10:34Z
Definitive object data (Epoch: 2024-12-13T10:34:32.425Z)
Latitude0.00006°
Longitude178.85149°
Altitude533.063 km
Speed7.59 km/s
True Right ascension04h 00m 22s
True Declination0° 00' 00"
Sunlit
Object was in full shadow at TLE epoch
Visualization TLE readout
Latitude-62.42788°
Longitude-166.16667°
Altitude549.482 km
Speed7.582 km/s
Apparent Right ascension07h 46m 54s
Apparent Declination-56° 14' 30"
Sunlit
Object is in daylight
Visualization observer readout
Local Sidereal Time21:30:20
Azimuth142.584° SSE
Elevation-66.494°
Doppler factor1
Orbital elements
Apogee altitude527.042 km
Perigee altitude505.076 km
Semi-major axis6,894.196 km
Eccentricity0.0015931
Inclination97.4759°
RAAN60.0932°
Arg. of periapsis172.6434°
True anomaly187.47981°
Mean anomaly187.5036°
Eccentric anomaly187.4917°
Mean motion3.79156 °/min
BSTAR0.00050451
Orbital period94.95 mins
Loading maneuver chart data...
Loading historical data...
Loading historical data...
Loading historical data...
Loading historical data...
Loading historical data...
Loading historical data...
Loading historical data...

OBJECT Q Visibility forecast

Observer location: undefined°, undefined

Span
Click to sort rows by Start time (UTC) header in descending order
Start Az.
Max El. time (UTC)
Max El. Az.
Max El.
End time (UTC)
End Az.
5 mins2024-12-14 04:09:20.592Z111.628° ESE2024-12-14 04:11:20.592Z77.652° E18.197°2024-12-14 04:14:20.592Z23.66° NE
4 mins2024-12-14 05:44:20.592Z229.753° WSW2024-12-14 05:45:20.592Z253.854° W23.846°2024-12-14 05:48:20.592Z317.085° NNW
4 mins2024-12-14 17:16:20.592Z53.744° ENE2024-12-14 17:18:20.592Z105.414° ESE24.942°2024-12-14 17:20:20.592Z147.993° SSE
|